Location: �terpigny
(49.8910°N, 2.9249°E)
Time: 06:02:59
(UTC+00:00)

SPROUT - Visible Passes

Search period start: 28 June 2022 00:00
Search period end: 08 July 2022 00:00
Orbit: 588 x 601 km, 97.9° (Epoch: 27 June)

Date Brightness Start Highest point End Pass type
(mag) Time Alt. Az. Time Alt. Az. Time Alt. Az.
28 Jun ? 01:27:42 19° SW 01:29:22 24° W 01:32:46 10° NW visible
29 Jun ? 00:00:39 22° SE 00:03:03 48° ENE 00:07:05 10° N visible
29 Jun ? 01:37:17 16° WSW 01:38:55 19° W 01:41:58 10° NW visible
30 Jun ? 00:10:14 25° SE 00:12:29 60° ENE 00:16:36 10° N visible
30 Jun ? 01:46:52 13° WSW 01:48:28 16° W 01:51:03 10° NW visible
30 Jun ? 22:46:03 10° ENE 22:47:04 11° NE 22:48:04 10° NE visible
01 Jul ? 00:19:48 28° SSE 00:21:55 75° ENE 00:26:05 10° N visible
01 Jul ? 01:56:26 11° WSW 01:58:02 13° W 01:59:57 10° WNW visible
01 Jul ? 22:54:28 10° E 22:56:23 13° ENE 22:58:17 10° NNE visible
02 Jul ? 00:29:21 30° SSE 00:31:20 88° WSW 00:35:32 10° NNW visible
02 Jul ? 02:06:59 10° W 02:07:36 10° W 02:08:12 10° WNW visible
02 Jul ? 23:03:14 10° E 23:05:41 15° ENE 23:08:09 10° NNE visible
03 Jul ? 00:38:55 32° S 00:40:47 72° WSW 00:44:57 10° NNW visible
03 Jul ? 23:12:08 10° ESE 23:15:00 18° ENE 23:17:52 10° NNE visible
04 Jul ? 00:48:27 31° SSW 00:50:13 57° W 00:54:21 10° NNW visible
04 Jul ? 23:21:21 11° ESE 23:24:19 22° ENE 23:27:32 10° NNE visible
05 Jul ? 00:58:00 29° SSW 00:59:39 46° W 01:03:42 10° NNW visible
05 Jul ? 23:30:53 14° ESE 23:33:38 26° ENE 23:37:07 10° N visible
06 Jul ? 01:07:31 27° SW 01:09:06 37° W 01:13:00 10° NNW visible
06 Jul ? 23:40:25 17° ESE 23:42:58 31° ENE 23:46:39 10° N visible
07 Jul ? 01:17:02 24° SW 01:18:32 30° W 01:22:15 10° NNW visible
07 Jul ? 23:49:55 20° SE 23:52:18 38° ENE 23:56:09 10° N visible
